CW9927 Weather Reports


time (UTC)temp
F
wind
direction
speed
knots
gust
knots
rain 1hr
in
rain 24hr
in
rain mn
in
humidity
%
barometer
mb
20260831034319 57 0.0 0.0 0.00 0.00 0.00 84 1013.8
20260831033323 58 0.0 0.0 0.00 0.00 0.00 84 1013.7
20260831032317 58 0.0 0.0 0.00 0.00 0.00 84 1013.6
20260831031317 58 0.0 0.0 0.00 0.00 0.00 83 1013.5
20260831030337 58 0.0 0.0 0.00 0.00 0.00 82 1013.3
20260831025318 59 0.0 0.0 0.00 0.00 0.00 82 1013.3
20260831024317 59 0.0 0.0 0.00 0.00 0.00 81 1013.2
20260831023318 60 0.0 0.0 0.00 0.00 0.00 79 1013.2
20260831022318 61 0.0 0.0 0.00 0.00 0.00 78 1013.2
20260831021318 62 0.0 0.0 0.00 0.00 0.00 75 1013.1
20260831020317 63 0.0 0.0 0.00 0.00 0.00 73 1013.2
20260831015318 65 0.0 0.0 0.00 0.00 0.00 71 1013.0
20260831014317 65 0.0 0.0 0.00 0.00 0.00 70 1013.0
20260831013317 66 0.0 0.0 0.00 0.00 0.00 69 1012.9
20260831012318 67 0.0 0.0 0.00 0.00 0.00 68 1012.9
20260831011317 67 0.0 0.0 0.00 0.00 0.00 67 1012.9
20260831010336 68 0.0 0.0 0.00 0.00 0.00 66 1012.9
20260831010219 68 0.0 0.0 0.00 0.00 0.00 65 1012.8
20260831005117 70 0.0 0.0 0.00 0.00 0.00 63 1012.8
20260831004117 69 0.0 0.0 0.00 0.00 0.00 63 1012.7
20260831003117 70 0.0 0.9 0.00 0.00 0.00 61 1012.7
20260831002136 71 0.0 0.0 0.00 0.00 0.00 60 1012.7
20260831001116 72 0.0 0.0 0.00 0.00 0.00 60 1012.7
20260831000116 72 0.0 0.0 0.00 0.00 0.00 58 1012.7
20260830235117 73 0.0 0.0 0.00 0.00 0.00 58 1012.6
20260830234116 73 0.0 0.0 0.00 0.00 0.00 56 1012.6
20260830233117 73 0.0 0.0 0.00 0.00 0.00 55 1012.7
20260830232156 74 0.0 0.0 0.00 0.00 0.00 54 1012.7
20260830231117 74 0.0 0.0 0.00 0.00 0.00 54 1012.7
20260830230116 75 0.0 0.9 0.00 0.00 0.00 53 1012.8
20260830225137 75 0.0 0.0 0.00 0.00 0.00 52 1012.8
20260830224137 75 248 3.5 8.7 0.00 0.00 0.00 51 1012.7
20260830223116 76 225 2.6 8.7 0.00 0.00 0.00 49 1012.9
20260830222116 77 0.0 0.0 0.00 0.00 0.00 49 1012.9
20260830221116 78 0.0 0.0 0.00 0.00 0.00 49 1013.1
20260830220117 77 0.0 0.0 0.00 0.00 0.00 48 1013.1
20260830215116 77 0.0 0.0 0.00 0.00 0.00 49 1013.2
20260830214116 77 0.0 0.0 0.00 0.00 0.00 49 1013.3
20260830213117 78 0.0 0.0 0.00 0.00 0.00 50 1013.5
20260830212116 77 0.0 0.0 0.00 0.00 0.00 50 1013.6
20260830211116 77 0.0 0.0 0.00 0.00 0.00 50 1013.7
20260830210116 77 0.0 0.0 0.00 0.00 0.00 50 1013.8
20260830205136 77 0.0 0.0 0.00 0.00 0.00 50 1013.9
20260830204116 76 0.0 0.0 0.00 0.00 0.00 51 1014.1
20260830203118 76 0.0 0.0 0.00 0.00 0.00 52 1014.1
20260830202117 75 0.0 0.0 0.00 0.00 0.00 53 1014.2
20260830201116 74 0.0 0.0 0.00 0.00 0.00 54 1014.2
20260830200116 74 0.0 0.0 0.00 0.00 0.00 56 1014.4
20260830195118 74 0.0 0.0 0.00 0.00 0.00 56 1014.6
20260830194118 73 0.0 0.0 0.00 0.00 0.00 58 1014.6
20260830193116 72 0.0 0.0 0.00 0.00 0.00 60 1014.7
20260830192116 72 0.0 0.0 0.00 0.00 0.00 61 1014.8
20260830191116 71 0.0 0.0 0.00 0.00 0.00 61 1014.9
20260830185119 69 0.0 0.0 0.00 0.00 0.00 63 1015.2
20260830184117 68 0.0 0.0 0.00 0.00 0.00 64 1015.3
20260830183118 68 0.0 0.0 0.00 0.00 0.00 66 1015.5
20260830182117 68 0.0 0.0 0.00 0.00 0.00 66 1015.4
20260830181117 67 0.0 0.0 0.00 0.00 0.00 69 1015.4
20260830180117 65 0.0 0.0 0.00 0.00 0.00 71 1015.4
20260830175117 65 0.0 0.0 0.00 0.00 0.00 72 1015.4
20260830174117 64 0.0 0.0 0.00 0.00 0.00 72 1015.5
20260830173117 64 0.0 0.0 0.00 0.00 0.00 73 1015.6
20260830172117 63 0.0 0.0 0.00 0.00 0.00 75 1015.7
20260830171117 62 0.0 0.0 0.00 0.00 0.00 78 1015.6
20260830170148 61 0.0 0.0 0.00 0.00 0.00 81 1015.7
20260830165116 60 0.0 0.0 0.00 0.00 0.00 86 1015.7
20260830164116 58 0.0 0.0 0.00 0.00 0.00 89 1015.8
20260830163116 57 0.0 0.0 0.00 0.00 0.00 90 1015.7
20260830162116 57 0.0 0.0 0.00 0.00 0.00 91 1015.8
20260830161117 57 0.0 0.0 0.00 0.00 0.00 91 1015.7
20260830160118 57 0.0 0.0 0.00 0.00 0.00 93 1015.8
20260830155116 56 0.0 0.0 0.00 0.00 0.00 93 1015.9
20260830154116 56 0.0 0.0 0.00 0.00 0.00 93 1016.0
20260830153217 56 0.0 0.0 0.00 0.00 0.00 93 1016.0
20260830152116 55 0.0 0.0 0.00 0.00 0.00 93 1015.9
20260830151116 54 0.0 0.0 0.00 0.00 0.00 93 1015.9
20260830150116 53 0.0 0.0 0.00 0.00 0.00 93 1015.9
20260830145116 51 0.0 0.0 0.00 0.00 0.00 93 1015.9
20260830144116 50 0.0 0.0 0.00 0.00 0.00 92 1015.9
20260830143136 48 0.0 0.0 0.00 0.00 0.00 91 1015.9
20260830142137 47 0.0 0.0 0.00 0.00 0.00 91 1015.7
20260830141116 47 0.0 0.0 0.00 0.00 0.00 90 1015.6
20260830140156 47 0.0 0.0 0.00 0.00 0.00 90 1015.4
20260830135116 47 0.0 0.0 0.00 0.00 0.00 89 1015.4
20260830134116 47 0.0 0.0 0.00 0.00 0.00 89 1015.2
20260830133156 48 0.0 0.0 0.00 0.00 0.00 89 1015.2
20260830132116 48 0.0 0.0 0.00 0.00 0.00 89 1015.1
20260830131116 49 0.0 0.0 0.00 0.00 0.00 89 1015.1
20260830125116 49 0.0 0.0 0.00 0.00 0.00 89 1015.0
20260830124116 48 0.0 0.0 0.00 0.00 0.00 89 1015.0
20260830123116 48 0.0 0.0 0.00 0.00 0.00 88 1014.8
20260830122116 49 0.0 0.0 0.00 0.00 0.00 88 1014.9
20260830121116 49 0.0 0.0 0.00 0.00 0.00 88 1015.0
20260830120116 49 0.0 0.0 0.00 0.00 0.00 89 1015.0
20260830115116 49 0.0 0.0 0.00 0.00 0.00 88 1015.0
20260830114116 49 0.0 0.0 0.00 0.00 0.00 87 1015.0
20260830113116 49 0.0 0.0 0.00 0.00 0.00 87 1014.9
20260830112136 49 0.0 0.0 0.00 0.00 0.00 87 1014.9
20260830111116 50 0.0 0.0 0.00 0.00 0.00 87 1014.9
20260830110138 50 0.0 0.0 0.00 0.00 0.00 87 1014.9
20260830105116 51 0.0 0.0 0.00 0.00 0.00 87 1014.8
20260830104116 51 0.0 0.0 0.00 0.00 0.00 87 1014.8
20260830103136 52 0.0 0.0 0.00 0.00 0.00 87 1014.9
20260830102116 52 0.0 0.0 0.00 0.00 0.00 87 1014.8
20260830101116 53 0.0 0.0 0.00 0.00 0.00 87 1014.8
20260830100116 53 0.0 0.0 0.00 0.00 0.00 88 1014.7
20260830095116 53 0.0 0.0 0.00 0.00 0.00 87 1014.7
20260830094116 53 0.0 0.0 0.00 0.00 0.00 87 1014.7
20260830093136 53 0.0 0.0 0.00 0.00 0.00 88 1014.7
20260830092116 53 0.0 0.0 0.00 0.00 0.00 87 1014.7
20260830091122 53 0.0 0.0 0.00 0.00 0.00 86 1014.7
20260830090116 53 0.0 0.0 0.00 0.00 0.00 86 1014.9
20260830085116 53 0.0 0.0 0.00 0.00 0.00 86 1014.8
20260830084116 53 0.0 0.0 0.00 0.00 0.00 85 1014.8
20260830083116 53 0.0 0.0 0.00 0.00 0.00 85 1014.8
20260830082136 53 0.0 0.0 0.00 0.00 0.00 84 1014.8
20260830081156 53 0.0 0.0 0.00 0.00 0.00 84 1015.0
20260830080116 54 0.0 0.0 0.00 0.00 0.00 83 1015.0
20260830075116 54 0.0 0.0 0.00 0.00 0.00 83 1015.0
20260830074116 54 0.0 0.0 0.00 0.00 0.00 83 1015.1
20260830073138 55 0.0 0.0 0.00 0.00 0.00 83 1015.0
20260830072116 55 0.0 0.0 0.00 0.00 0.00 83 1015.0
20260830071138 55 0.0 0.0 0.00 0.00 0.00 82 1015.0
20260830065115 56 0.0 0.0 0.00 0.00 0.00 83 1014.9
20260830064116 56 0.0 0.0 0.00 0.00 0.00 83 1014.9
20260830063135 57 0.0 0.0 0.00 0.00 0.00 83 1014.9
20260830062115 57 0.0 0.0 0.00 0.00 0.00 81 1014.9
20260830061115 57 0.0 0.0 0.00 0.00 0.00 81 1014.9
20260830060116 57 0.0 0.0 0.00 0.00 0.00 80 1015.0
20260830055117 58 0.0 0.0 0.00 0.00 0.00 80 1014.9
20260830054115 58 0.0 0.0 0.00 0.00 0.00 79 1014.9
20260830053116 58 0.0 0.0 0.00 0.00 0.00 78 1014.8
20260830052116 59 0.0 0.0 0.00 0.00 0.00 78 1014.8
20260830051116 59 0.0 0.0 0.00 0.00 0.00 78 1014.8
20260830050116 59 0.0 0.0 0.00 0.00 0.00 78 1014.8
20260830045117 60 0.0 0.0 0.00 0.00 0.00 78 1014.6
20260830044137 60 0.0 0.0 0.00 0.00 0.00 77 1014.6
20260830043118 60 0.0 0.0 0.00 0.00 0.00 76 1014.6
20260830042118 61 0.0 0.0 0.00 0.00 0.00 76 1014.6
20260830041118 61 0.0 0.0 0.00 0.00 0.00 75 1014.5
20260830040137 62 0.0 0.0 0.00 0.00 0.00 74 1014.3
20260830035137 62 0.0 0.0 0.00 0.00 0.00 74 1014.2